| time (UTC) | temp F | wind direction | speed MPH | gust MPH | rain 1hr in | rain 24hr in | rain mn in | humidity % | barometer mb |
| 20260508083517 | 60 | 68 | 0.0 | 1.0 | 0.00 | 0.08 | 0.00 | 93 | 1015.1 |
| 20260508083017 | 60 | 75 | 0.0 | 0.0 | 0.00 | 0.08 | 0.00 | 93 | 1015.0 |
| 20260508082537 | 60 | 75 | 0.0 | 0.0 | 0.00 | 0.08 | 0.00 | 93 | 1015.0 |
| 20260508082017 | 60 | 68 | 0.0 | 1.0 | 0.00 | 0.08 | 0.00 | 93 | 1014.8 |
| 20260508081537 | 60 | 105 | 0.0 | 0.0 | 0.00 | 0.08 | 0.00 | 93 | 1014.8 |
| 20260508081038 | 60 | 105 | 0.0 | 0.0 | 0.00 | 0.08 | 0.00 | 93 | 1014.7 |
| 20260508080537 | 60 | 105 | 0.0 | 0.0 | 0.00 | 0.08 | 0.00 | 93 | 1014.3 |
| 20260508080017 | 60 | 203 | 0.0 | 1.0 | 0.00 | 0.08 | 0.00 | 93 | 1014.4 |
| 20260508075517 | 60 | 82 | 0.0 | 0.0 | 0.00 | 0.08 | 0.00 | 93 | 1014.3 |
| 20260508075017 | 60 | 82 | 0.0 | 0.0 | 0.00 | 0.08 | 0.00 | 93 | 1014.4 |
| 20260508074518 | 60 | 90 | 0.0 | 1.0 | 0.00 | 0.08 | 0.00 | 93 | 1014.5 |
| 20260508074037 | 60 | 82 | 0.0 | 0.0 | 0.00 | 0.09 | 0.00 | 93 | 1014.5 |
| 20260508073517 | 61 | 90 | 0.0 | 2.0 | 0.00 | 0.09 | 0.00 | 93 | 1014.6 |
| 20260508073018 | 61 | 90 | 0.0 | 3.0 | 0.00 | 0.09 | 0.00 | 92 | 1014.6 |
| 20260508072537 | 61 | 332 | 0.0 | 0.0 | 0.00 | 0.09 | 0.00 | 92 | 1014.4 |
| 20260508072037 | 61 | 338 | 0.0 | 1.0 | 0.00 | 0.09 | 0.00 | 91 | 1014.9 |
| 20260508071517 | 61 | 350 | 0.0 | 0.0 | 0.00 | 0.11 | 0.00 | 91 | 1015.0 |
| 20260508071017 | 61 | 350 | 0.0 | 0.0 | 0.00 | 0.13 | 0.00 | 91 | 1014.8 |
| 20260508070517 | 61 | 350 | 0.0 | 0.0 | 0.00 | 0.14 | 0.00 | 91 | 1014.7 |
| 20260508070017 | 61 | 350 | 0.0 | 0.0 | 0.00 | 0.16 | 0.00 | 91 | 1014.8 |
| 20260508065517 | 61 | 350 | 0.0 | 0.0 | 0.00 | 0.18 | 0.00 | 91 | 1014.8 |
| 20260508065017 | 62 | 350 | 0.0 | 0.0 | 0.00 | 0.18 | 0.00 | 91 | 1015.0 |
| 20260508064517 | 62 | 350 | 0.0 | 0.0 | 0.00 | 0.19 | 0.00 | 91 | 1014.9 |
| 20260508064017 | 62 | 350 | 0.0 | 0.0 | 0.00 | 0.20 | 0.00 | 91 | 1015.0 |
| 20260508063517 | 62 | 350 | 0.0 | 0.0 | 0.00 | 0.21 | 0.00 | 90 | 1015.0 |
| 20260508063017 | 62 | 350 | 0.0 | 0.0 | 0.00 | 0.21 | 0.00 | 90 | 1014.8 |
| 20260508062538 | 62 | 350 | 0.0 | 0.0 | 0.00 | 0.22 | 0.00 | 91 | 1014.8 |
| 20260508062017 | 62 | 350 | 0.0 | 0.0 | 0.00 | 0.23 | 0.00 | 91 | 1015.1 |
| 20260508061537 | 62 | 350 | 0.0 | 0.0 | 0.00 | 0.25 | 0.00 | 91 | 1015.1 |
| 20260508061017 | 62 | 350 | 0.0 | 0.0 | 0.00 | 0.26 | 0.00 | 91 | 1015.2 |
| 20260508060537 | 62 | 330 | 0.0 | 0.0 | 0.00 | 0.28 | 0.00 | 91 | 1015.1 |
| 20260508060037 | 62 | 330 | 0.0 | 0.0 | 0.00 | 0.30 | 0.00 | 91 | 1015.2 |
| 20260508055517 | 62 | 330 | 0.0 | 0.0 | 0.00 | 0.31 | 0.00 | 91 | 1015.3 |
| 20260508055017 | 63 | 338 | 0.0 | 1.0 | 0.00 | 0.33 | 0.00 | 91 | 1015.3 |
| 20260508054517 | 63 | 326 | 0.0 | 0.0 | 0.00 | 0.33 | 0.00 | 91 | 1015.2 |
| 20260508054037 | 63 | 24 | 0.0 | 0.0 | 0.00 | 0.34 | 0.00 | 91 | 1015.1 |
| 20260508053517 | 63 | 24 | 0.0 | 0.0 | 0.00 | 0.35 | 0.00 | 90 | 1015.2 |
| 20260508053038 | 63 | 23 | 0.0 | 1.0 | 0.00 | 0.36 | 0.00 | 90 | 1015.4 |
| 20260508052517 | 63 | 38 | 0.0 | 0.0 | 0.00 | 0.37 | 0.00 | 90 | 1015.4 |
| 20260508052037 | 63 | 38 | 0.0 | 0.0 | 0.00 | 0.37 | 0.00 | 90 | 1015.3 |
| 20260508051517 | 63 | 38 | 0.0 | 0.0 | 0.00 | 0.38 | 0.00 | 90 | 1015.4 |
| 20260508051037 | 63 | 38 | 0.0 | 0.0 | 0.00 | 0.39 | 0.00 | 90 | 1015.3 |
| 20260508050517 | 63 | 38 | 0.0 | 0.0 | 0.00 | 0.40 | 0.00 | 90 | 1015.4 |
| 20260508050017 | 63 | 45 | 0.0 | 2.0 | 0.00 | 0.41 | 0.00 | 90 | 1015.4 |
| 20260508045517 | 63 | 45 | 0.0 | 1.0 | 0.00 | 0.42 | 0.00 | 89 | 1015.2 |
| 20260508045016 | 63 | 68 | 0.0 | 1.0 | 0.00 | 0.43 | 0.00 | 90 | 1015.1 |
| 20260508044517 | 63 | 74 | 0.0 | 0.0 | 0.00 | 0.44 | 0.00 | 90 | 1015.3 |
| 20260508044017 | 63 | 72 | 0.0 | 0.0 | 0.00 | 0.45 | 0.00 | 89 | 1015.0 |
| 20260508043517 | 64 | 68 | 0.0 | 1.0 | 0.00 | 0.45 | 0.00 | 89 | 1015.1 |
| 20260508043037 | 64 | 72 | 0.0 | 0.0 | 0.00 | 0.46 | 0.00 | 89 | 1014.9 |
| 20260508042537 | 64 | 72 | 0.0 | 0.0 | 0.00 | 0.47 | 0.00 | 89 | 1015.0 |
| 20260508042017 | 64 | 72 | 0.0 | 0.0 | 0.00 | 0.47 | 0.00 | 89 | 1015.1 |
| 20260508041517 | 64 | 72 | 0.0 | 0.0 | 0.00 | 0.47 | 0.00 | 89 | 1015.2 |
| 20260508041017 | 64 | 72 | 0.0 | 0.0 | 0.00 | 0.48 | 0.00 | 88 | 1015.0 |
| 20260508040517 | 64 | 72 | 0.0 | 0.0 | 0.00 | 0.48 | 0.00 | 88 | 1014.8 |
| 20260508040017 | 65 | 90 | 0.0 | 0.0 | 0.00 | 0.49 | 0.49 | 89 | 1014.9 |
| 20260508035537 | 65 | 90 | 0.0 | 0.0 | 0.00 | 0.49 | 0.49 | 87 | 1015.0 |
| 20260508035017 | 65 | 91 | 0.0 | 0.0 | 0.00 | 0.49 | 0.49 | 87 | 1014.9 |
| 20260508034537 | 65 | 91 | 0.0 | 0.0 | 0.00 | 0.51 | 0.49 | 87 | 1014.9 |
| 20260508034017 | 65 | 91 | 0.0 | 0.0 | 0.00 | 0.51 | 0.49 | 86 | 1014.8 |
| 20260508033517 | 65 | 90 | 0.0 | 2.0 | 0.00 | 0.52 | 0.49 | 85 | 1014.8 |
| 20260508033017 | 65 | 30 | 0.0 | 0.0 | 0.00 | 0.53 | 0.49 | 86 | 1014.9 |
| 20260508032518 | 65 | 30 | 0.0 | 0.0 | 0.00 | 0.54 | 0.49 | 85 | 1014.9 |
| 20260508032017 | 65 | 30 | 0.0 | 0.0 | 0.00 | 0.55 | 0.49 | 85 | 1014.9 |
| 20260508031517 | 66 | 23 | 0.0 | 1.0 | 0.00 | 0.55 | 0.49 | 85 | 1014.8 |
| 20260508031017 | 66 | 68 | 0.0 | 1.0 | 0.00 | 0.55 | 0.49 | 85 | 1014.7 |
| 20260508030517 | 66 | 45 | 0.0 | 1.0 | 0.00 | 0.56 | 0.49 | 85 | 1014.6 |
| 20260508030038 | 66 | 45 | 0.0 | 2.0 | 0.00 | 0.56 | 0.49 | 85 | 1014.5 |
| 20260508025517 | 66 | 248 | 0.0 | 3.0 | 0.00 | 0.56 | 0.49 | 84 | 1014.4 |
| 20260508025017 | 66 | 135 | 0.0 | 1.0 | 0.00 | 0.57 | 0.49 | 84 | 1014.4 |
| 20260508024517 | 66 | 225 | 0.0 | 1.0 | 0.00 | 0.57 | 0.49 | 84 | 1014.4 |
| 20260508024037 | 67 | 155 | 0.0 | 0.0 | 0.00 | 0.57 | 0.49 | 84 | 1014.5 |
| 20260508023557 | 67 | 158 | 0.0 | 1.0 | 0.00 | 0.57 | 0.49 | 84 | 1014.4 |
| 20260508023037 | 67 | 248 | 0.0 | 1.0 | 0.00 | 0.57 | 0.49 | 84 | 1014.4 |
| 20260508022519 | 67 | 248 | 0.0 | 2.0 | 0.00 | 0.57 | 0.49 | 83 | 1014.4 |
| 20260508022017 | 68 | 270 | 0.0 | 2.0 | 0.00 | 0.57 | 0.49 | 84 | 1014.4 |
| 20260508021517 | 68 | 135 | 0.0 | 3.0 | 0.00 | 0.57 | 0.49 | 84 | 1014.3 |
| 20260508021037 | 68 | 225 | 0.0 | 3.0 | 0.00 | 0.57 | 0.49 | 84 | 1014.2 |
| 20260508020537 | 68 | 158 | 0.0 | 3.0 | 0.00 | 0.57 | 0.49 | 84 | 1014.1 |
| 20260508020017 | 69 | 135 | 0.0 | 1.0 | 0.00 | 0.57 | 0.49 | 84 | 1014.1 |
| 20260508015537 | 69 | 135 | 0.0 | 2.0 | 0.00 | 0.57 | 0.49 | 84 | 1014.1 |
| 20260508015037 | 69 | 135 | 0.0 | 1.0 | 0.00 | 0.57 | 0.49 | 85 | 1014.0 |
| 20260508014537 | 69 | 135 | 0.0 | 1.0 | 0.00 | 0.57 | 0.49 | 85 | 1013.9 |
| 20260508014016 | 70 | 68 | 0.0 | 2.0 | 0.00 | 0.57 | 0.49 | 84 | 1013.8 |
| 20260508013537 | 70 | 225 | 1.0 | 3.0 | 0.00 | 0.57 | 0.49 | 84 | 1013.7 |
| 20260508013138 | 70 | 113 | 0.0 | 1.0 | 0.00 | 0.57 | 0.49 | 85 | 1013.5 |
| 20260508012517 | 70 | 248 | 0.0 | 2.0 | 0.00 | 0.57 | 0.49 | 85 | 1013.4 |
| 20260508012017 | 71 | 250 | 0.0 | 0.0 | 0.00 | 0.57 | 0.49 | 85 | 1013.1 |
| 20260508011517 | 71 | 250 | 0.0 | 0.0 | 0.00 | 0.57 | 0.49 | 85 | 1013.2 |
| 20260508011018 | 71 | 250 | 0.0 | 0.0 | 0.00 | 0.57 | 0.49 | 84 | 1013.1 |
| 20260508010516 | 72 | 248 | 0.0 | 2.0 | 0.00 | 0.57 | 0.49 | 83 | 1013.2 |
| 20260508010037 | 72 | 248 | 0.0 | 2.0 | 0.00 | 0.57 | 0.49 | 83 | 1013.1 |
| 20260508005537 | 72 | 254 | 0.0 | 0.0 | 0.00 | 0.57 | 0.49 | 82 | 1013.0 |
| 20260508005017 | 73 | 248 | 0.0 | 1.0 | 0.00 | 0.57 | 0.49 | 82 | 1012.9 |
| 20260508004517 | 73 | 248 | 0.0 | 3.0 | 0.00 | 0.57 | 0.49 | 81 | 1012.9 |
| 20260508004017 | 74 | 248 | 0.0 | 1.0 | 0.00 | 0.57 | 0.49 | 81 | 1012.9 |
| 20260508003537 | 74 | 250 | 0.0 | 0.0 | 0.00 | 0.57 | 0.49 | 80 | 1012.8 |
| 20260508003016 | 75 | 248 | 0.0 | 1.0 | 0.00 | 0.57 | 0.49 | 79 | 1012.7 |
| 20260508002516 | 75 | 248 | 0.0 | 2.0 | 0.00 | 0.57 | 0.49 | 78 | 1012.7 |
| 20260508002016 | 75 | 248 | 1.0 | 3.0 | 0.00 | 0.57 | 0.49 | 77 | 1012.4 |
| 20260508001517 | 76 | 248 | 1.0 | 3.0 | 0.00 | 0.57 | 0.49 | 76 | 1012.4 |
| 20260508001016 | 77 | 252 | 0.0 | 0.0 | 0.00 | 0.57 | 0.49 | 76 | 1012.4 |
| 20260508000557 | 77 | 248 | 0.0 | 1.0 | 0.00 | 0.57 | 0.49 | 75 | 1012.4 |
| 20260508000036 | 78 | 244 | 0.0 | 0.0 | 0.00 | 0.57 | 0.49 | 75 | 1012.3 |
| 20260507235516 | 78 | 248 | 1.0 | 2.0 | 0.00 | 0.57 | 0.49 | 73 | 1012.3 |
| 20260507235036 | 78 | 248 | 0.0 | 3.0 | 0.00 | 0.57 | 0.49 | 72 | 1012.4 |
| 20260507234516 | 79 | 248 | 2.0 | 4.0 | 0.00 | 0.57 | 0.49 | 71 | 1012.3 |
| 20260507234037 | 79 | 248 | 2.0 | 7.0 | 0.00 | 0.57 | 0.49 | 71 | 1012.1 |
| 20260507233516 | 79 | 248 | 1.0 | 4.0 | 0.00 | 0.57 | 0.49 | 71 | 1012.1 |
| 20260507233016 | 79 | 248 | 2.0 | 8.0 | 0.00 | 0.57 | 0.49 | 71 | 1012.1 |
| 20260507232516 | 79 | 248 | 3.0 | 8.0 | 0.00 | 0.57 | 0.49 | 70 | 1012.1 |
| 20260507232016 | 79 | 248 | 2.0 | 6.0 | 0.00 | 0.57 | 0.49 | 70 | 1012.2 |
| 20260507231537 | 79 | 225 | 2.0 | 8.0 | 0.00 | 0.57 | 0.49 | 70 | 1012.2 |
| 20260507231016 | 80 | 248 | 2.0 | 6.0 | 0.00 | 0.57 | 0.49 | 70 | 1012.1 |
| 20260507230516 | 80 | 248 | 1.0 | 5.0 | 0.00 | 0.57 | 0.49 | 70 | 1011.9 |
| 20260507230016 | 80 | 248 | 2.0 | 6.0 | 0.00 | 0.57 | 0.49 | 70 | 1012.0 |
| 20260507225516 | 80 | 248 | 4.0 | 8.0 | 0.00 | 0.57 | 0.49 | 69 | 1011.9 |
| 20260507225016 | 81 | 225 | 4.0 | 9.0 | 0.00 | 0.57 | 0.49 | 68 | 1011.9 |
| 20260507224516 | 81 | 248 | 2.0 | 8.0 | 0.00 | 0.57 | 0.49 | 69 | 1011.9 |
| 20260507224016 | 80 | 248 | 2.0 | 7.0 | 0.00 | 0.57 | 0.49 | 71 | 1012.0 |
| 20260507223516 | 80 | 248 | 2.0 | 5.0 | 0.00 | 0.57 | 0.49 | 69 | 1011.8 |
| 20260507223016 | 80 | 248 | 3.0 | 6.0 | 0.00 | 0.57 | 0.49 | 69 | 1011.7 |
| 20260507222516 | 81 | 248 | 2.0 | 7.0 | 0.00 | 0.57 | 0.49 | 69 | 1011.8 |
| 20260507222016 | 81 | 225 | 1.0 | 6.0 | 0.00 | 0.57 | 0.49 | 70 | 1011.6 |
| 20260507221516 | 81 | 225 | 3.0 | 9.0 | 0.00 | 0.57 | 0.49 | 70 | 1011.7 |
| 20260507221016 | 80 | 248 | 4.0 | 10.0 | 0.00 | 0.57 | 0.49 | 69 | 1011.7 |
| 20260507220516 | 80 | 248 | 3.0 | 10.0 | 0.00 | 0.57 | 0.49 | 68 | 1011.7 |
| 20260507220036 | 80 | 203 | 4.0 | 11.0 | 0.00 | 0.57 | 0.49 | 68 | 1011.8 |
| 20260507215517 | 80 | 225 | 3.0 | 8.0 | 0.00 | 0.57 | 0.49 | 71 | 1011.8 |
| 20260507215016 | 80 | 248 | 2.0 | 6.0 | 0.00 | 0.57 | 0.49 | 72 | 1011.7 |
| 20260507214516 | 80 | 248 | 2.0 | 6.0 | 0.00 | 0.57 | 0.49 | 71 | 1011.8 |
| 20260507214016 | 80 | 225 | 3.0 | 10.0 | 0.00 | 0.57 | 0.49 | 71 | 1011.8 |
| 20260507213516 | 80 | 248 | 3.0 | 12.0 | 0.00 | 0.57 | 0.49 | 71 | 1011.7 |
| 20260507213016 | 80 | 203 | 2.0 | 8.0 | 0.00 | 0.57 | 0.49 | 72 | 1011.7 |
| 20260507212516 | 80 | 203 | 2.0 | 6.0 | 0.00 | 0.57 | 0.49 | 73 | 1011.7 |
| 20260507212016 | 80 | 248 | 3.0 | 8.0 | 0.00 | 0.57 | 0.49 | 74 | 1011.6 |
| 20260507211516 | 80 | 248 | 4.0 | 11.0 | 0.00 | 0.57 | 0.49 | 73 | 1011.5 |
| 20260507211016 | 80 | 225 | 3.0 | 9.0 | 0.00 | 0.57 | 0.49 | 76 | 1011.6 |
| 20260507210516 | 79 | 225 | 2.0 | 6.0 | 0.00 | 0.57 | 0.49 | 75 | 1011.7 |
| 20260507210016 | 78 | 248 | 3.0 | 7.0 | 0.00 | 0.57 | 0.49 | 76 | 1011.6 |
| 20260507205516 | 78 | 248 | 4.0 | 9.0 | 0.00 | 0.57 | 0.49 | 75 | 1011.5 |
| 20260507205016 | 78 | 225 | 2.0 | 6.0 | 0.00 | 0.57 | 0.49 | 78 | 1011.6 |
| 20260507204537 | 77 | 225 | 2.0 | 5.0 | 0.00 | 0.57 | 0.49 | 78 | 1011.6 |
| 20260507204016 | 77 | 225 | 2.0 | 7.0 | 0.00 | 0.57 | 0.49 | 80 | 1011.6 |
| 20260507203516 | 76 | 203 | 1.0 | 5.0 | 0.00 | 0.57 | 0.49 | 80 | 1011.6 |
| 20260507203016 | 76 | 225 | 3.0 | 8.0 | 0.00 | 0.57 | 0.49 | 81 | 1011.7 |
| 20260507202516 | 76 | 225 | 1.0 | 4.0 | 0.00 | 0.57 | 0.49 | 80 | 1011.7 |
| 20260507202016 | 76 | 225 | 3.0 | 9.0 | 0.00 | 0.57 | 0.49 | 81 | 1011.7 |
| 20260507201516 | 76 | 225 | 2.0 | 8.0 | 0.00 | 0.57 | 0.49 | 83 | 1011.8 |
| 20260507201016 | 76 | 225 | 2.0 | 9.0 | 0.00 | 0.57 | 0.49 | 84 | 1011.8 |
| 20260507200516 | 75 | 225 | 1.0 | 5.0 | 0.00 | 0.57 | 0.49 | 83 | 1011.8 |
| 20260507200016 | 75 | 225 | 3.0 | 9.0 | 0.00 | 0.57 | 0.49 | 82 | 1011.8 |
| 20260507195516 | 75 | 248 | 4.0 | 12.0 | 0.00 | 0.57 | 0.49 | 82 | 1011.7 |
| 20260507195020 | 75 | 248 | 2.0 | 7.0 | 0.00 | 0.57 | 0.49 | 84 | 1011.8 |
| 20260507194536 | 75 | 248 | 2.0 | 8.0 | 0.00 | 0.57 | 0.49 | 84 | 1011.9 |
| 20260507194016 | 75 | 225 | 2.0 | 6.0 | 0.00 | 0.57 | 0.49 | 84 | 1011.8 |
| 20260507193516 | 75 | 248 | 2.0 | 10.0 | 0.00 | 0.57 | 0.49 | 84 | 1011.9 |
| 20260507193016 | 75 | 248 | 1.0 | 3.0 | 0.01 | 0.57 | 0.49 | 86 | 1011.8 |
| 20260507192516 | 75 | 248 | 1.0 | 4.0 | 0.01 | 0.57 | 0.49 | 85 | 1011.8 |
| 20260507192016 | 75 | 248 | 3.0 | 15.0 | 0.01 | 0.57 | 0.49 | 84 | 1011.9 |
| 20260507191518 | 75 | 248 | 2.0 | 8.0 | 0.01 | 0.57 | 0.49 | 84 | 1012.0 |
| 20260507191017 | 75 | 248 | 1.0 | 4.0 | 0.01 | 0.57 | 0.49 | 86 | 1012.1 |
| 20260507190518 | 75 | 248 | 1.0 | 6.0 | 0.01 | 0.57 | 0.49 | 85 | 1012.0 |
| 20260507190038 | 75 | 225 | 2.0 | 6.0 | 0.01 | 0.57 | 0.49 | 85 | 1012.0 |
| 20260507185538 | 75 | 225 | 2.0 | 9.0 | 0.01 | 0.57 | 0.49 | 84 | 1012.0 |
| 20260507185037 | 75 | 225 | 2.0 | 7.0 | 0.01 | 0.57 | 0.49 | 84 | 1012.0 |
| 20260507184517 | 75 | 225 | 2.0 | 9.0 | 0.01 | 0.57 | 0.49 | 85 | 1012.0 |
| 20260507184017 | 75 | 248 | 2.0 | 5.0 | 0.01 | 0.57 | 0.49 | 85 | 1012.0 |
| 20260507183518 | 75 | 225 | 2.0 | 9.0 | 0.01 | 0.57 | 0.49 | 85 | 1012.0 |
| 20260507183017 | 75 | 248 | 2.0 | 7.0 | 0.00 | 0.56 | 0.48 | 85 | 1012.0 |
| 20260507182538 | 75 | 225 | 3.0 | 8.0 | 0.00 | 0.56 | 0.48 | 85 | 1011.9 |
| 20260507182017 | 75 | 225 | 2.0 | 6.0 | 0.00 | 0.56 | 0.48 | 86 | 1011.9 |
| 20260507181517 | 75 | 248 | 2.0 | 8.0 | 0.00 | 0.56 | 0.48 | 86 | 1011.9 |
| 20260507181017 | 75 | 248 | 3.0 | 10.0 | 0.00 | 0.56 | 0.48 | 86 | 1011.9 |
| 20260507180516 | 75 | 248 | 3.0 | 8.0 | 0.00 | 0.56 | 0.48 | 87 | 1011.9 |
| 20260507180017 | 74 | 225 | 2.0 | 7.0 | 0.00 | 0.56 | 0.48 | 88 | 1011.9 |
| 20260507175517 | 74 | 225 | 1.0 | 6.0 | 0.00 | 0.56 | 0.48 | 89 | 1011.9 |
| 20260507175017 | 74 | 248 | 1.0 | 6.0 | 0.00 | 0.56 | 0.48 | 90 | 1011.8 |
| 20260507174518 | 74 | 248 | 2.0 | 7.0 | 0.00 | 0.56 | 0.48 | 88 | 1012.0 |
| 20260507174038 | 74 | 248 | 1.0 | 6.0 | 0.00 | 0.56 | 0.48 | 90 | 1011.9 |
| 20260507173517 | 74 | 248 | 2.0 | 6.0 | 0.00 | 0.56 | 0.48 | 90 | 1011.9 |
| 20260507173017 | 74 | 225 | 3.0 | 9.0 | 0.00 | 0.56 | 0.48 | 92 | 1011.9 |
| 20260507172558 | 73 | 225 | 2.0 | 6.0 | 0.00 | 0.56 | 0.48 | 94 | 1012.0 |
| 20260507172017 | 73 | 248 | 2.0 | 8.0 | 0.00 | 0.56 | 0.48 | 94 | 1011.9 |
| 20260507171517 | 72 | 90 | 0.0 | 3.0 | 0.00 | 0.56 | 0.48 | 96 | 1012.0 |
| 20260507171017 | 72 | 225 | 3.0 | 8.0 | 0.00 | 0.56 | 0.48 | 95 | 1012.2 |
| 20260507170517 | 72 | 225 | 2.0 | 7.0 | 0.00 | 0.56 | 0.48 | 96 | 1012.0 |
| 20260507170017 | 71 | 248 | 2.0 | 10.0 | 0.00 | 0.56 | 0.48 | 96 | 1012.2 |
| 20260507165517 | 71 | 225 | 3.0 | 9.0 | 0.00 | 0.56 | 0.48 | 96 | 1012.1 |
| 20260507165017 | 71 | 225 | 1.0 | 6.0 | 0.00 | 0.56 | 0.48 | 97 | 1012.3 |
| 20260507164517 | 71 | 248 | 1.0 | 5.0 | 0.00 | 0.56 | 0.48 | 97 | 1012.4 |
| 20260507164017 | 71 | 248 | 2.0 | 5.0 | 0.00 | 0.56 | 0.48 | 97 | 1012.5 |
| 20260507163517 | 71 | 180 | 0.0 | 3.0 | 0.00 | 0.56 | 0.48 | 98 | 1012.3 |
| 20260507163037 | 71 | 45 | 1.0 | 3.0 | 0.00 | 0.56 | 0.48 | 97 | 1012.3 |
| 20260507162517 | 71 | 180 | 1.0 | 6.0 | 0.00 | 0.56 | 0.48 | 97 | 1012.2 |
| 20260507162017 | 71 | 225 | 2.0 | 6.0 | 0.00 | 0.56 | 0.48 | 97 | 1012.3 |
| 20260507161517 | 71 | 248 | 2.0 | 8.0 | 0.00 | 0.56 | 0.48 | 97 | 1012.0 |
| 20260507161017 | 71 | 248 | 2.0 | 6.0 | 0.00 | 0.56 | 0.48 | 97 | 1012.2 |
| 20260507160517 | 71 | 248 | 2.0 | 7.0 | 0.00 | 0.56 | 0.48 | 97 | 1012.0 |
| 20260507160017 | 71 | 248 | 3.0 | 7.0 | 0.00 | 0.56 | 0.48 | 97 | 1012.0 |
| 20260507155537 | 71 | 248 | 3.0 | 6.0 | 0.00 | 0.56 | 0.48 | 97 | 1011.9 |
| 20260507155037 | 71 | 248 | 3.0 | 5.0 | 0.00 | 0.56 | 0.48 | 97 | 1011.8 |
| 20260507154517 | 71 | 270 | 1.0 | 3.0 | 0.00 | 0.56 | 0.48 | 97 | 1011.7 |
| 20260507154037 | 71 | 248 | 2.0 | 7.0 | 0.00 | 0.56 | 0.48 | 97 | 1011.7 |
| 20260507153517 | 71 | 248 | 2.0 | 7.0 | 0.00 | 0.56 | 0.48 | 97 | 1011.8 |
| 20260507153017 | 71 | 248 | 3.0 | 6.0 | 0.00 | 0.56 | 0.48 | 97 | 1011.8 |
| 20260507152517 | 71 | 248 | 2.0 | 8.0 | 0.00 | 0.56 | 0.48 | 97 | 1011.6 |
| 20260507152017 | 71 | 248 | 2.0 | 8.0 | 0.00 | 0.56 | 0.48 | 97 | 1011.5 |
| 20260507151517 | 71 | 225 | 1.0 | 2.0 | 0.00 | 0.56 | 0.48 | 97 | 1011.6 |
| 20260507151057 | 71 | 225 | 1.0 | 3.0 | 0.00 | 0.56 | 0.48 | 97 | 1011.5 |
| 20260507150517 | 71 | 225 | 1.0 | 2.0 | 0.00 | 0.56 | 0.48 | 97 | 1011.5 |
| 20260507150037 | 71 | 225 | 1.0 | 2.0 | 0.00 | 0.56 | 0.48 | 97 | 1011.5 |
| 20260507145517 | 71 | 203 | 2.0 | 5.0 | 0.00 | 0.56 | 0.48 | 97 | 1011.6 |
| 20260507145037 | 71 | 203 | 1.0 | 3.0 | 0.00 | 0.56 | 0.48 | 97 | 1011.6 |
| 20260507144517 | 71 | 225 | 1.0 | 2.0 | 0.00 | 0.56 | 0.48 | 97 | 1011.7 |
| 20260507144037 | 71 | 203 | 1.0 | 8.0 | 0.00 | 0.56 | 0.48 | 97 | 1011.7 |
| 20260507143517 | 71 | 203 | 1.0 | 8.0 | 0.00 | 0.56 | 0.48 | 98 | 1011.7 |
| 20260507143037 | 71 | 203 | 1.0 | 3.0 | 0.00 | 0.56 | 0.48 | 98 | 1011.7 |
| 20260507142517 | 70 | 225 | 1.0 | 3.0 | 0.00 | 0.56 | 0.48 | 98 | 1011.4 |
| 20260507142017 | 70 | 180 | 1.0 | 5.0 | 0.00 | 0.56 | 0.48 | 98 | 1011.2 |
| 20260507141517 | 70 | 180 | 1.0 | 3.0 | 0.00 | 0.56 | 0.48 | 97 | 1011.4 |
| 20260507141017 | 70 | 203 | 1.0 | 3.0 | 0.00 | 0.56 | 0.48 | 97 | 1011.3 |
| 20260507140517 | 69 | 225 | 1.0 | 2.0 | 0.00 | 0.56 | 0.48 | 97 | 1011.3 |
| 20260507140037 | 69 | 225 | 1.0 | 5.0 | 0.00 | 0.56 | 0.48 | 97 | 1011.3 |
| 20260507135517 | 69 | 225 | 1.0 | 3.0 | 0.00 | 0.56 | 0.48 | 97 | 1011.2 |
| 20260507135016 | 69 | 203 | 0.0 | 1.0 | 0.00 | 0.56 | 0.48 | 97 | 1011.2 |
| 20260507134536 | 69 | 158 | 1.0 | 2.0 | 0.00 | 0.56 | 0.48 | 97 | 1011.2 |
| 20260507134037 | 69 | 225 | 0.0 | 3.0 | 0.00 | 0.56 | 0.48 | 97 | 1011.3 |
| 20260507133517 | 69 | 225 | 0.0 | 3.0 | 0.00 | 0.56 | 0.48 | 97 | 1011.3 |
| 20260507133016 | 69 | 248 | 0.0 | 1.0 | 0.00 | 0.56 | 0.48 | 97 | 1011.3 |
| 20260507132519 | 69 | 248 | 0.0 | 1.0 | 0.00 | 0.56 | 0.48 | 97 | 1011.3 |
| 20260507132017 | 68 | 203 | 0.0 | 2.0 | 0.00 | 0.56 | 0.48 | 97 | 1011.2 |
| 20260507131517 | 68 | 203 | 0.0 | 1.0 | 0.00 | 0.56 | 0.48 | 97 | 1011.1 |
| 20260507131037 | 68 | 203 | 0.0 | 1.0 | 0.01 | 0.56 | 0.48 | 97 | 1011.1 |
| 20260507130516 | 68 | 203 | 0.0 | 1.0 | 0.02 | 0.56 | 0.48 | 97 | 1011.2 |
| 20260507130016 | 68 | 203 | 0.0 | 2.0 | 0.02 | 0.56 | 0.48 | 97 | 1011.4 |
| 20260507125537 | 68 | 126 | 0.0 | 0.0 | 0.02 | 0.56 | 0.48 | 97 | 1011.6 |
| 20260507125017 | 68 | 126 | 0.0 | 0.0 | 0.02 | 0.56 | 0.48 | 97 | 1011.7 |
| 20260507124537 | 68 | 203 | 0.0 | 2.0 | 0.02 | 0.56 | 0.48 | 97 | 1011.7 |
| 20260507124036 | 68 | 131 | 0.0 | 0.0 | 0.04 | 0.56 | 0.48 | 97 | 1011.5 |
| 20260507123537 | 68 | 158 | 0.0 | 1.0 | 0.04 | 0.56 | 0.48 | 97 | 1011.3 |
| 20260507123016 | 68 | 225 | 0.0 | 2.0 | 0.04 | 0.56 | 0.48 | 97 | 1011.2 |
| 20260507122517 | 68 | 68 | 0.0 | 3.0 | 0.04 | 0.56 | 0.48 | 97 | 1011.2 |
| 20260507122036 | 68 | 203 | 0.0 | 1.0 | 0.04 | 0.56 | 0.48 | 97 | 1011.3 |
| 20260507121537 | 68 | 203 | 0.0 | 1.0 | 0.04 | 0.56 | 0.48 | 97 | 1011.4 |
| 20260507121016 | 68 | 203 | 0.0 | 1.0 | 0.04 | 0.55 | 0.47 | 97 | 1011.5 |
| 20260507120516 | 68 | 180 | 0.0 | 2.0 | 0.04 | 0.54 | 0.46 | 97 | 1011.5 |
| 20260507120016 | 68 | 203 | 0.0 | 5.0 | 0.04 | 0.54 | 0.46 | 97 | 1011.5 |
| 20260507115516 | 68 | 180 | 0.0 | 2.0 | 0.04 | 0.54 | 0.46 | 97 | 1011.4 |
| 20260507115016 | 68 | 180 | 0.0 | 1.0 | 0.04 | 0.54 | 0.46 | 97 | 1011.5 |
| 20260507114537 | 68 | 248 | 0.0 | 1.0 | 0.04 | 0.54 | 0.46 | 97 | 1011.6 |
| 20260507114016 | 68 | 248 | 0.0 | 1.0 | 0.02 | 0.52 | 0.44 | 97 | 1011.5 |
| 20260507113516 | 68 | 0 | 0.0 | 2.0 | 0.02 | 0.52 | 0.44 | 97 | 1011.5 |
| 20260507113016 | 68 | 248 | 0.0 | 2.0 | 0.02 | 0.52 | 0.44 | 97 | 1011.5 |
| 20260507112516 | 68 | 225 | 0.0 | 2.0 | 0.02 | 0.52 | 0.44 | 97 | 1011.3 |
| 20260507112016 | 68 | 225 | 0.0 | 1.0 | 0.02 | 0.52 | 0.44 | 97 | 1011.2 |
| 20260507111516 | 68 | 225 | 0.0 | 1.0 | 0.02 | 0.52 | 0.44 | 97 | 1011.4 |
| 20260507111041 | 68 | 203 | 0.0 | 2.0 | 0.01 | 0.51 | 0.43 | 97 | 1011.7 |
| 20260507110516 | 68 | 180 | 0.0 | 2.0 | 0.00 | 0.50 | 0.42 | 97 | 1011.5 |
| 20260507110016 | 68 | 135 | 0.0 | 1.0 | 0.00 | 0.50 | 0.42 | 97 | 1011.6 |
| 20260507105516 | 68 | 113 | 0.0 | 1.0 | 0.00 | 0.50 | 0.42 | 97 | 1011.8 |
| 20260507105016 | 67 | 248 | 0.0 | 2.0 | 0.00 | 0.50 | 0.42 | 97 | 1011.6 |
| 20260507104516 | 68 | 68 | 1.0 | 4.0 | 0.00 | 0.50 | 0.42 | 97 | 1010.9 |
| 20260507104016 | 67 | 225 | 0.0 | 2.0 | 0.00 | 0.50 | 0.42 | 97 | 1010.6 |
| 20260507103516 | 67 | 113 | 0.0 | 3.0 | 0.00 | 0.50 | 0.42 | 97 | 1010.6 |
| 20260507103016 | 67 | 90 | 0.0 | 2.0 | 0.00 | 0.50 | 0.42 | 97 | 1011.1 |
| 20260507102516 | 67 | 87 | 0.0 | 0.0 | 0.00 | 0.50 | 0.42 | 97 | 1011.6 |
| 20260507102016 | 67 | 90 | 0.0 | 1.0 | 0.01 | 0.50 | 0.42 | 97 | 1011.6 |
| 20260507101517 | 67 | 90 | 0.0 | 3.0 | 0.01 | 0.50 | 0.42 | 97 | 1011.6 |
| 20260507101016 | 67 | 68 | 0.0 | 1.0 | 0.01 | 0.50 | 0.42 | 97 | 1011.6 |
| 20260507100516 | 67 | 68 | 0.0 | 1.0 | 0.01 | 0.50 | 0.42 | 97 | 1011.9 |
| 20260507100016 | 67 | 338 | 0.0 | 1.0 | 0.01 | 0.50 | 0.42 | 97 | 1012.0 |
| 20260507095516 | 67 | 90 | 0.0 | 2.0 | 0.01 | 0.50 | 0.42 | 97 | 1012.1 |
| 20260507095016 | 67 | 225 | 0.0 | 2.0 | 0.01 | 0.50 | 0.42 | 97 | 1012.0 |
| 20260507094516 | 67 | 180 | 0.0 | 2.0 | 0.01 | 0.50 | 0.42 | 97 | 1011.9 |
| 20260507094016 | 67 | 90 | 0.0 | 1.0 | 0.01 | 0.50 | 0.42 | 97 | 1011.8 |
| 20260507093516 | 67 | 90 | 0.0 | 2.0 | 0.01 | 0.50 | 0.42 | 97 | 1011.9 |
| 20260507093016 | 67 | 90 | 0.0 | 2.0 | 0.01 | 0.50 | 0.42 | 97 | 1012.1 |
| 20260507092516 | 67 | 90 | 0.0 | 3.0 | 0.01 | 0.50 | 0.42 | 97 | 1012.2 |
| 20260507092016 | 67 | 158 | 0.0 | 1.0 | 0.00 | 0.49 | 0.41 | 97 | 1012.5 |
| 20260507091516 | 67 | 45 | 0.0 | 2.0 | 0.00 | 0.49 | 0.41 | 97 | 1012.4 |
| 20260507091016 | 67 | 90 | 0.0 | 1.0 | 0.00 | 0.49 | 0.41 | 97 | 1012.7 |
| 20260507090516 | 67 | 135 | 0.0 | 1.0 | 0.00 | 0.49 | 0.41 | 97 | 1013.2 |
| 20260507090016 | 67 | 98 | 0.0 | 0.0 | 0.00 | 0.49 | 0.41 | 96 | 1013.2 |
| 20260507085516 | 67 | 98 | 0.0 | 0.0 | 0.00 | 0.49 | 0.41 | 96 | 1013.1 |
| 20260507085016 | 67 | 98 | 0.0 | 0.0 | 0.00 | 0.49 | 0.41 | 96 | 1013.2 |
| 20260507084516 | 67 | 90 | 0.0 | 1.0 | 0.00 | 0.49 | 0.41 | 96 | 1012.9 |
| 20260507084016 | 67 | 177 | 0.0 | 0.0 | 0.01 | 0.49 | 0.41 | 96 | 1012.8 |